Location: ?
(35.3544°N, 139.4507°E)
Time: 05:59:11
(UTC+00:00)

Cosmos 1707 Rocket - Pass Details

Date: 03 August 2024
Orbit: 602 x 626 km, 82.5° (Epoch: 10 September)

Event Time Altitude Azimuth Distance (km) Brightness Sun altitude
Rises 17:31:42 0° 346° (NNW) 2,885 7.4 -24.7°
Reaches altitude 10° 17:33:58 10° 341° (NNW) 1,980 6.4 -24.4°
Enters shadow 17:36:56 36° 312° (NW) 978 4.5 -24.0°
